Weather in Vesele

Ukraine / Dnipropetrovsk Region     47˚52′48″N   34˚21′17″E
temp.,
°C
wind,
m/s
gust,
m/s
humid.,
%
clouds,
%
prec.,
mm/h
press.,
hPa
HPBL,
m
28 november, sat
sat2823:00+6˚sw379253 0.0 1021207
02:00+5˚sw249672 0.0 1020102
05:00+6˚ssw2498100 0.1 1019152
08:00+7˚s51096100 0.1 1019389
11:00+9˚s81280100 0.0 1020698
14:00+9˚s71173100 0.1 1018740
17:00+9˚sse61174100 0.1 1019490
20:00+8˚sse61080100 0.1 1019422
29 november, sun
sun2923:00+8˚sse51087100 0.0 1019368
02:00+7˚sse598797 0.1 1019275
05:00+8˚sse61084100 0.0 1019301
08:00+8˚sse61187100 0.1 1020484
11:00+9˚sse6981100 0.0 1020508
14:00+10˚s5774100 0.0 1021759
17:00+9˚se4880100 0.1 1021347
20:00+8˚se6990100 0.1 1021344
30 november, mon
mon3023:00+6˚se5992100 0.1 1021290
02:00+6˚se699299 0.1 1021261
05:00+5˚se61089100 0.0 1021273
08:00+5˚se61184100 0.0 1022356
11:00+7˚se61078100 0.0 1022469
14:00+8˚se5875100 0.0 1022583
17:00+6˚ese4983100 0.0 1022355
20:00+4˚e4983100 0.0 1023348
1 december, tue
tue123:00+3˚ene348955 0.0 102385
02:00+3˚ene468677 0.0 1023147
05:00+5˚ene4779100 0.0 1023328
08:00+4˚e4775100 0.0 1024421
11:00+4˚ene4567100 0.0 1024543
14:00+4˚ene4569100 0.0 1024569
17:00+3˚ene4675100 0.0 1024539
20:00+2˚ene4682100 0.0 1025446
2 december, wed
wed223:00+1˚ne369493 0.0 1025200
02:00+2˚ne469096 0.0 1025338
05:00+2˚ene4684100 0.0 1025386
08:00+2˚ene4781100 0.0 1025390
11:00+4˚e4674100 0.0 1026540
14:00+4˚e4574100 0.0 1025538
17:00+4˚ene4674100 0.0 1025557
20:00+4˚e4774100 0.0 1026440